Time,TemperatureF,DewpointF,PressureIn,WindDirection,WindDirectionDegrees,WindSpeedMPH,WindSpeedGustMPH,Humidity,HourlyPrecipIn,Conditions,Clouds,dailyrainin,SoftwareType,DateUTC
2013-02-28 00:06:00,35.1,30.0,29.85,NNE,20,6.0,-999.0,80,-99.99,,,0.01,weatherlink.com 1.10,2013-02-28 05:06:00,
2013-02-28 00:21:00,35.0,29.0,29.85,NE,54,11.0,-999.0,80,-99.99,,,0.01,weatherlink.com 1.10,2013-02-28 05:21:00,
2013-02-28 00:36:00,34.8,29.0,29.85,NE,46,7.0,-999.0,80,-99.99,,,0.01,weatherlink.com 1.10,2013-02-28 05:36:00,
2013-02-28 00:51:00,34.7,29.0,29.85,NE,52,9.0,-999.0,80,-99.99,,,0.01,weatherlink.com 1.10,2013-02-28 05:51:00,
2013-02-28 01:07:00,34.6,29.0,29.85,East,80,4.0,-999.0,80,-99.99,,,0.01,weatherlink.com 1.10,2013-02-28 06:07:00,
2013-02-28 01:21:00,34.4,29.0,29.85,NNE,27,11.0,-999.0,80,-99.99,,,0.01,weatherlink.com 1.10,2013-02-28 06:21:00,
2013-02-28 01:36:00,34.4,29.0,29.85,NE,42,13.0,-999.0,80,-99.99,,,0.01,weatherlink.com 1.10,2013-02-28 06:36:00,
2013-02-28 01:51:00,34.4,29.0,29.86,ENE,57,5.0,-999.0,80,-99.99,,,0.01,weatherlink.com 1.10,2013-02-28 06:51:00,
2013-02-28 02:06:00,34.4,29.0,29.86,NNE,22,9.0,-999.0,79,-99.99,,,0.01,weatherlink.com 1.10,2013-02-28 07:06:00,
2013-02-28 02:21:00,34.3,28.0,29.86,NE,40,15.0,-999.0,79,-99.99,,,0.01,weatherlink.com 1.10,2013-02-28 07:21:00,
2013-02-28 02:36:00,34.3,28.0,29.86,NNE,13,7.0,-999.0,78,-99.99,,,0.01,weatherlink.com 1.10,2013-02-28 07:36:00,
2013-02-28 02:51:00,34.1,28.0,29.85,NNE,17,14.0,-999.0,78,-99.99,,,0.01,weatherlink.com 1.10,2013-02-28 07:51:00,
2013-02-28 03:06:00,33.9,28.0,29.86,East,83,13.0,-999.0,78,-99.99,,,0.01,weatherlink.com 1.10,2013-02-28 08:06:00,
2013-02-28 03:21:00,33.9,27.0,29.86,ENE,59,6.0,-999.0,77,-99.99,,,0.01,weatherlink.com 1.10,2013-02-28 08:21:00,
2013-02-28 03:36:00,33.7,27.0,29.86,North,5,11.0,-999.0,77,-99.99,,,0.01,weatherlink.com 1.10,2013-02-28 08:36:00,
2013-02-28 03:51:00,33.5,27.0,29.86,North,5,8.0,-999.0,77,-99.99,,,0.01,weatherlink.com 1.10,2013-02-28 08:51:00,
2013-02-28 04:06:00,33.3,27.0,29.86,ENE,78,8.0,-999.0,77,-99.99,,,0.01,weatherlink.com 1.10,2013-02-28 09:06:00,
2013-02-28 04:21:00,33.2,27.0,29.87,NE,46,12.0,-999.0,77,-99.99,,,0.01,weatherlink.com 1.10,2013-02-28 09:21:00,
2013-02-28 04:36:00,32.9,26.0,29.87,NE,36,12.0,-999.0,77,-99.99,,,0.01,weatherlink.com 1.10,2013-02-28 09:36:00,
2013-02-28 04:51:00,32.8,26.0,29.87,NNE,18,7.0,-999.0,77,-99.99,,,0.01,weatherlink.com 1.10,2013-02-28 09:51:00,
2013-02-28 05:07:00,32.6,26.0,29.88,NE,38,6.0,-999.0,77,-99.99,,,0.01,weatherlink.com 1.10,2013-02-28 10:07:00,
2013-02-28 05:21:00,32.4,26.0,29.88,NNE,24,15.0,-999.0,77,-99.99,,,0.01,weatherlink.com 1.10,2013-02-28 10:21:00,
2013-02-28 05:36:00,32.3,26.0,29.89,ENE,64,12.0,-999.0,78,-99.99,,,0.01,weatherlink.com 1.10,2013-02-28 10:36:00,
2013-02-28 05:51:00,32.1,26.0,29.90,NNE,32,6.0,-999.0,78,-99.99,,,0.01,weatherlink.com 1.10,2013-02-28 10:51:00,
2013-02-28 06:06:00,31.9,26.0,29.90,North,5,11.0,-999.0,78,-99.99,,,0.01,weatherlink.com 1.10,2013-02-28 11:06:00,
2013-02-28 06:21:00,31.6,25.0,29.90,NNE,28,10.0,-999.0,78,-99.99,,,0.01,weatherlink.com 1.10,2013-02-28 11:21:00,
2013-02-28 06:36:00,31.4,25.0,29.91,NE,38,11.0,-999.0,78,-99.99,,,0.01,weatherlink.com 1.10,2013-02-28 11:36:00,
2013-02-28 06:51:00,30.8,25.0,29.91,NNE,15,12.0,-999.0,78,-99.99,,,0.01,weatherlink.com 1.10,2013-02-28 11:51:00,
2013-02-28 07:06:00,30.4,25.0,29.92,North,5,9.0,-999.0,79,-99.99,,,0.01,weatherlink.com 1.10,2013-02-28 12:06:00,
2013-02-28 07:21:00,30.1,24.0,29.92,North,5,16.0,-999.0,78,-99.99,,,0.01,weatherlink.com 1.10,2013-02-28 12:21:00,
2013-02-28 07:36:00,29.6,24.0,29.93,NNE,25,13.0,-999.0,78,-99.99,,,0.01,weatherlink.com 1.10,2013-02-28 12:36:00,
2013-02-28 07:51:00,29.6,23.0,29.94,NE,37,8.0,-999.0,77,-99.99,,,0.01,weatherlink.com 1.10,2013-02-28 12:51:00,
2013-02-28 08:06:00,29.1,23.0,29.95,NNE,19,11.0,-999.0,78,-99.99,,,0.01,weatherlink.com 1.10,2013-02-28 13:06:00,
2013-02-28 08:21:00,28.8,23.0,29.96,North,9,14.0,-999.0,78,-99.99,,,0.01,weatherlink.com 1.10,2013-02-28 13:21:00,
2013-02-28 08:36:00,28.9,23.0,29.97,NE,47,13.0,-999.0,77,-99.99,,,0.01,weatherlink.com 1.10,2013-02-28 13:36:00,
2013-02-28 08:51:00,28.9,23.0,29.97,ENE,57,9.0,-999.0,77,-99.99,,,0.01,weatherlink.com 1.10,2013-02-28 13:51:00,
2013-02-28 09:06:00,28.7,22.0,29.97,ENE,57,5.0,-999.0,76,-99.99,,,0.01,weatherlink.com 1.10,2013-02-28 14:06:00,
2013-02-28 09:37:00,28.3,22.0,29.98,North,360,16.0,-999.0,76,-99.99,,,0.00,weatherlink.com 1.10,2013-02-28 14:37:00,
2013-02-28 09:52:00,28.1,21.0,29.99,NE,38,6.0,-999.0,76,-99.99,,,0.00,weatherlink.com 1.10,2013-02-28 14:52:00,
2013-02-28 10:07:00,28.3,22.0,29.99,NNE,18,14.0,-999.0,76,-99.99,,,0.00,weatherlink.com 1.10,2013-02-28 15:07:00,
2013-02-28 10:22:00,28.1,21.0,30.00,NNE,29,15.0,-999.0,75,-99.99,,,0.00,weatherlink.com 1.10,2013-02-28 15:22:00,
2013-02-28 10:37:00,28.0,21.0,30.00,NE,37,7.0,-999.0,75,-99.99,,,0.00,weatherlink.com 1.10,2013-02-28 15:37:00,
2013-02-28 10:52:00,28.2,21.0,30.00,NNE,30,14.0,-999.0,75,-99.99,,,0.00,weatherlink.com 1.10,2013-02-28 15:52:00,
2013-02-28 11:07:00,28.3,21.0,30.00,NE,54,10.0,-999.0,74,-99.99,,,0.00,weatherlink.com 1.10,2013-02-28 16:07:00,
2013-02-28 11:22:00,28.0,21.0,30.02,NNE,31,4.0,-999.0,74,-99.99,,,0.00,weatherlink.com 1.10,2013-02-28 16:22:00,
2013-02-28 11:37:00,28.9,21.0,30.02,North,355,7.0,-999.0,73,-99.99,,,0.00,weatherlink.com 1.10,2013-02-28 16:37:00,
2013-02-28 11:52:00,29.2,21.0,30.02,NNE,17,12.0,-999.0,72,-99.99,,,0.00,weatherlink.com 1.10,2013-02-28 16:52:00,
2013-02-28 12:07:00,29.0,20.0,30.02,NE,46,18.0,-999.0,70,-99.99,,,0.00,weatherlink.com 1.10,2013-02-28 17:07:00,
2013-02-28 12:22:00,29.3,21.0,30.03,NNE,15,7.0,-999.0,70,-99.99,,,0.00,weatherlink.com 1.10,2013-02-28 17:22:00,
2013-02-28 12:37:00,29.3,21.0,30.03,NE,42,6.0,-999.0,70,-99.99,,,0.00,weatherlink.com 1.10,2013-02-28 17:37:00,
2013-02-28 12:52:00,29.6,21.0,30.03,NE,39,14.0,-999.0,69,-99.99,,,0.00,weatherlink.com 1.10,2013-02-28 17:52:00,
2013-02-28 13:22:00,29.4,20.0,30.03,NE,41,13.0,-999.0,69,-99.99,,,0.00,weatherlink.com 1.10,2013-02-28 18:22:00,
2013-02-28 13:37:00,29.7,20.0,30.03,North,360,9.0,-999.0,68,-99.99,,,0.00,weatherlink.com 1.10,2013-02-28 18:37:00,
2013-02-28 13:52:00,29.7,20.0,30.03,NNE,26,12.0,-999.0,68,-99.99,,,0.00,weatherlink.com 1.10,2013-02-28 18:52:00,
2013-02-28 14:07:00,29.9,20.0,30.04,NNE,33,12.0,-999.0,66,-99.99,,,0.00,weatherlink.com 1.10,2013-02-28 19:07:00,
2013-02-28 14:22:00,29.9,20.0,30.04,ENE,60,14.0,-999.0,66,-99.99,,,0.00,weatherlink.com 1.10,2013-02-28 19:22:00,
2013-02-28 14:37:00,29.9,19.0,30.04,NE,34,14.0,-999.0,65,-99.99,,,0.00,weatherlink.com 1.10,2013-02-28 19:37:00,
2013-02-28 14:52:00,30.2,19.0,30.05,NNE,13,10.0,-999.0,63,-99.99,,,0.00,weatherlink.com 1.10,2013-02-28 19:52:00,
2013-02-28 15:07:00,30.9,19.0,30.05,NE,52,9.0,-999.0,61,-99.99,,,0.00,weatherlink.com 1.10,2013-02-28 20:07:00,
2013-02-28 15:22:00,30.9,19.0,30.05,NE,38,17.0,-999.0,61,-99.99,,,0.00,weatherlink.com 1.10,2013-02-28 20:22:00,
2013-02-28 15:37:00,30.4,18.0,30.05,NE,44,8.0,-999.0,61,-99.99,,,0.00,weatherlink.com 1.10,2013-02-28 20:37:00,
2013-02-28 15:52:00,30.4,18.0,30.06,NNE,23,9.0,-999.0,61,-99.99,,,0.00,weatherlink.com 1.10,2013-02-28 20:52:00,
2013-02-28 16:07:00,30.1,18.0,30.06,North,5,13.0,-999.0,62,-99.99,,,0.00,weatherlink.com 1.10,2013-02-28 21:07:00,
2013-02-28 16:22:00,29.8,18.0,30.07,NNE,13,14.0,-999.0,62,-99.99,,,0.00,weatherlink.com 1.10,2013-02-28 21:22:00,
2013-02-28 16:37:00,29.5,18.0,30.08,NNE,25,23.0,-999.0,63,-99.99,,,0.00,weatherlink.com 1.10,2013-02-28 21:37:00,
2013-02-28 16:52:00,29.3,18.0,30.08,NE,38,10.0,-999.0,62,-99.99,,,0.00,weatherlink.com 1.10,2013-02-28 21:52:00,
2013-02-28 17:07:00,29.5,18.0,30.09,NNE,15,14.0,-999.0,62,-99.99,,,0.00,weatherlink.com 1.10,2013-02-28 22:07:00,
2013-02-28 17:22:00,29.0,17.0,30.10,NNE,22,13.0,-999.0,62,-99.99,,,0.00,weatherlink.com 1.10,2013-02-28 22:22:00,
2013-02-28 17:37:00,28.7,17.0,30.11,NE,35,19.0,-999.0,62,-99.99,,,0.00,weatherlink.com 1.10,2013-02-28 22:37:00,
2013-02-28 17:52:00,27.5,16.0,30.11,NNE,28,17.0,-999.0,63,-99.99,,,0.00,weatherlink.com 1.10,2013-02-28 22:52:00,
2013-02-28 18:07:00,27.5,16.0,30.12,ENE,65,12.0,-999.0,63,-99.99,,,0.00,weatherlink.com 1.10,2013-02-28 23:07:00,
2013-02-28 18:23:00,27.5,17.0,30.13,NNE,26,7.0,-999.0,64,-99.99,,,0.00,weatherlink.com 1.10,2013-02-28 23:23:00,
2013-02-28 18:38:00,27.5,17.0,30.14,NNE,24,9.0,-999.0,64,-99.99,,,0.00,weatherlink.com 1.10,2013-02-28 23:38:00,
2013-02-28 18:53:00,27.1,16.0,30.15,NNE,22,15.0,-999.0,64,-99.99,,,0.00,weatherlink.com 1.10,2013-02-28 23:53:00,
2013-02-28 19:08:00,26.2,16.0,30.16,ENE,58,7.0,-999.0,65,-99.99,,,0.00,weatherlink.com 1.10,2013-03-01 00:08:00,
2013-02-28 19:23:00,25.6,15.0,30.17,NE,56,2.0,-999.0,65,-99.99,,,0.00,weatherlink.com 1.10,2013-03-01 00:23:00,
2013-02-28 19:38:00,25.0,15.0,30.18,NE,37,5.0,-999.0,66,-99.99,,,0.00,weatherlink.com 1.10,2013-03-01 00:38:00,
2013-02-28 19:54:00,24.9,15.0,30.18,NE,45,5.0,-999.0,67,-99.99,,,0.00,weatherlink.com 1.10,2013-03-01 00:54:00,
2013-02-28 20:09:00,24.2,15.0,30.20,NE,35,11.0,-999.0,68,-99.99,,,0.00,weatherlink.com 1.10,2013-03-01 01:09:00,
2013-02-28 20:24:00,23.8,15.0,30.20,NNE,28,4.0,-999.0,68,-99.99,,,0.00,weatherlink.com 1.10,2013-03-01 01:24:00,
2013-02-28 20:39:00,23.2,15.0,30.21,NNE,33,7.0,-999.0,70,-99.99,,,0.00,weatherlink.com 1.10,2013-03-01 01:39:00,
2013-02-28 20:54:00,22.8,14.0,30.21,NNE,19,11.0,-999.0,69,-99.99,,,0.00,weatherlink.com 1.10,2013-03-01 01:54:00,
2013-02-28 21:09:00,22.4,14.0,30.22,NNE,28,4.0,-999.0,70,-99.99,,,0.00,weatherlink.com 1.10,2013-03-01 02:09:00,
2013-02-28 21:24:00,21.8,13.0,30.22,NE,34,8.0,-999.0,70,-99.99,,,0.00,weatherlink.com 1.10,2013-03-01 02:24:00,
2013-02-28 21:39:00,21.5,13.0,30.22,NNE,26,10.0,-999.0,70,-99.99,,,0.00,weatherlink.com 1.10,2013-03-01 02:39:00,
2013-02-28 21:54:00,21.0,13.0,30.22,NE,49,5.0,-999.0,71,-99.99,,,0.00,weatherlink.com 1.10,2013-03-01 02:54:00,
2013-02-28 22:09:00,20.9,13.0,30.23,NNE,26,6.0,-999.0,71,-99.99,,,0.00,weatherlink.com 1.10,2013-03-01 03:09:00,
2013-02-28 22:24:00,20.3,13.0,30.23,NNE,21,9.0,-999.0,72,-99.99,,,0.00,weatherlink.com 1.10,2013-03-01 03:24:00,
2013-02-28 22:39:00,20.1,12.0,30.23,North,5,10.0,-999.0,72,-99.99,,,0.00,weatherlink.com 1.10,2013-03-01 03:39:00,
2013-02-28 22:54:00,19.7,12.0,30.23,NNE,21,9.0,-999.0,72,-99.99,,,0.00,weatherlink.com 1.10,2013-03-01 03:54:00,
2013-02-28 23:09:00,19.7,12.0,30.24,North,10,15.0,-999.0,72,-99.99,,,0.00,weatherlink.com 1.10,2013-03-01 04:09:00,
2013-02-28 23:24:00,19.5,12.0,30.24,NNW,338,9.0,-999.0,72,-99.99,,,0.00,weatherlink.com 1.10,2013-03-01 04:24:00,
2013-02-28 23:39:00,19.3,12.0,30.24,NNE,16,5.0,-999.0,72,-99.99,,,0.00,weatherlink.com 1.10,2013-03-01 04:39:00,
2013-02-28 23:54:00,18.9,11.0,30.24,NNE,23,5.0,-999.0,72,-99.99,,,0.00,weatherlink.com 1.10,2013-03-01 04:54:00,